Location: Aufkirchen
(47.9603°N, 11.3653°E)
Time: 10:33:53
(UTC+01:00)

Tiros 1 - Pass Details

Date: 03 December 2020
Orbit: 630 x 663 km, 48.4° (Epoch: 21 January)

Event Time Altitude Azimuth Distance (km) Brightness Sun altitude
Rises 16:12:28 0° 265° (W) 2,992 11.8 0.6°
Reaches altitude 10° 16:14:49 10° 266° (W) 2,079 10.9 0.3°
Maximum altitude 16:19:38 86° 354° (N) 667 7.3 -0.4°
Drops below altitude 10° 16:24:26 10° 85° (E) 2,070 9.2 -1.1°
Sets 16:26:46 0° 86° (E) 2,977 10.0 -1.4°
